{"data":{"norad_id":65220,"epoch":"2026-05-25T01:17:37.262400Z","epoch_age_seconds":63719,"freshness":"FRESH","line1":"1 65220U 25176Y   26145.05390350  .00020239  00000+0  60839-3 0  9993","line2":"2 65220  53.1581 157.2158 0000823  87.4451 272.6646 15.34405883 44823","mean_motion":15.34405883,"eccentricity":8.23e-5,"inclination_deg":53.1581,"raan_deg":157.2158,"arg_perigee_deg":87.4451,"mean_anomaly_deg":272.6646,"bstar":0.00060839,"rev_number":4482,"period_min":93.847398263657,"perigee_km":462.12275503447,"apogee_km":463.2487544599,"semimajor_km":6840.8227547472,"source":"CELESTRAK","updated_at":"2026-05-25T13:38:20.722347Z"}}